Home > Weather > Hayward > Past weeks

Flag for USA Past Weather in Hayward, California, USA — Yesterday and Last 2 Weeks

Now
67 °F

Clear.


Feels Like: 67 °F
Forecast: 58 / 85 °F
Wind: 5 mph from Northwest

Location: Hayward Air Terminal

Current Time: Jul 27, 2016 at 12:54:49 AM

Latest Report: Jul 26, 2016 at 11:54 PM


Visibility: 10 mi

Pressure: 29.88 "Hg

Humidity: 55%

Dew Point: 50 °F

Location of HaywardLocation

Past Weather in Hayward — Graph

°F

Hayward Temperature Yesterday

Maximum temperature yesterday: 89 °F (at 2:54 PM)
Minimum temperature yesterday: 58 °F (at 4:54 AM)
Average temperature yesterday: 72 °F

High & Low Weather Summary for the Past Weeks

 TemperatureHumidityPressure
High89 °F (Jul 26, 2:54 PM)81% (Jul 14, 10:54 PM)30.15 "Hg (Jul 14, 10:54 PM)
Low56 °F (Jul 13, 5:54 AM)22% (Jul 26, 5:54 PM)29.84 "Hg (Jul 26, 5:54 PM)
Average65 °F63%30.00 "Hg
* Reported Jul 11 11:54 PM — Jul 26 11:54 PM, Hayward, Weather by CustomWeather, © 2016

Note: Actual official high and low records may vary slightly from our data, if they occured in-between our weather recording intervals... More about our weather records

Advertising

Hayward Weather History for the Previous 24 Hours

Scroll right to see more
 ConditionsComfort  
Time TempWeatherWind HumidityBarometerVisibility
11:54 PM
Tue, Jul 26
67 °FClear.5 mph55%29.88 "Hg10 mi
10:54 PM69 °FClear.6 mph51%29.88 "Hg10 mi
9:54 PM71 °FClear.5 mph49%29.88 "Hg10 mi
8:54 PM72 °FSunny.5 mph53%29.86 "Hg10 mi
7:54 PM76 °FSunny.6 mph50%29.85 "Hg10 mi
6:54 PM83 °FSunny.9 mph33%29.84 "Hg10 mi
5:54 PM88 °FSunny.9 mph22%29.84 "Hg10 mi
4:54 PM88 °FSunny.12 mph28%29.84 "Hg10 mi
3:54 PM89 °FSunny.10 mph28%29.86 "Hg10 mi
2:54 PM89 °FSunny.12 mph29%29.88 "Hg10 mi
1:54 PM87 °FSunny.8 mph27%29.90 "Hg10 mi
12:54 PM84 °FSunny.6 mph30%29.91 "Hg10 mi
11:54 AM79 °FSunny.7 mph45%29.93 "Hg10 mi
10:54 AM75 °FSunny.5 mph52%29.94 "Hg10 mi
9:54 AM71 °FSunny.No wind55%29.95 "Hg10 mi
8:54 AM68 °FSunny.No wind59%29.95 "Hg10 mi
7:54 AM63 °FSunny.No wind65%29.95 "Hg10 mi
6:54 AM59 °FClear.No wind72%29.94 "Hg10 mi
5:54 AM58 °FClear.No wind75%29.92 "Hg10 mi
4:54 AM58 °FClear.No wind75%29.92 "Hg10 mi
3:54 AM60 °FClear.3 mph72%29.92 "Hg10 mi
2:54 AM60 °FClear.3 mph72%29.92 "Hg10 mi
1:54 AM60 °FClear.3 mph72%29.92 "Hg10 mi
12:54 AM60 °FClear.6 mph69%29.92 "Hg10 mi
Weather by CustomWeather, © 2016

See weather overviewHow to use our weather pages